This is the latest recevied weather packets stored in our database for station/object W2EH. If no packets are shown the sender has not sent any weather packets the latest 10 day(s).
| Time | Temp. | Humidity | Pressure | Rain* | Wind** | Luminosity | Snow |
|---|---|---|---|---|---|---|---|
| 1777929751 | 27.78° C | 55% | 1008.7 hPa | 0 mm | - | 588 W/m² | - |
| 1777929449 | 27.78° C | 55% | 1008.8 hPa | 0 mm | - | 590 W/m² | - |
| 1777929144 | 27.78° C | 56% | 1008.7 hPa | 0 mm | - | 698 W/m² | - |
| 1777928843 | 27.78° C | 57% | 1009.1 hPa | 0 mm | - | 699 W/m² | - |
| 1777928539 | 27.78° C | 57% | 1009.2 hPa | 0 mm | - | 731 W/m² | - |
| 1777928236 | 27.78° C | 57% | 1009 hPa | 0 mm | - | 644 W/m² | - |
| 1777927934 | 26.67° C | 57% | 1009.4 hPa | 0 mm | - | 658 W/m² | - |
| 1777927632 | 27.22° C | 56% | 1009.4 hPa | 0 mm | - | 423 W/m² | - |
| 1777927330 | 27.78° C | 57% | 1009.3 hPa | 0 mm | - | 601 W/m² | - |
| 1777927029 | 27.22° C | 57% | 1009.7 hPa | 0 mm | - | 733 W/m² | - |
| 1777926726 | 26.67° C | 58% | 1009.5 hPa | 0 mm | - | 692 W/m² | - |
| 1777926426 | 26.67° C | 57% | 1009.7 hPa | 0 mm | - | 213 W/m² | - |
| 1777926123 | 27.22° C | 56% | 1009.9 hPa | 0 mm | - | 616 W/m² | - |
| 1777925820 | 26.67° C | 58% | 1009.7 hPa | 0 mm | - | 566 W/m² | - |
| 1777925518 | 27.22° C | 57% | 1009.7 hPa | 0 mm | - | 724 W/m² | - |
| 1777925215 | 26.67° C | 57% | 1009.8 hPa | 0 mm | - | 609 W/m² | - |
| 1777924911 | 26.67° C | 59% | 1010 hPa | 0 mm | - | 466 W/m² | - |
| 1777924607 | 26.67° C | 58% | 1009.9 hPa | 0 mm | - | 528 W/m² | - |
| 1777924304 | 26.67° C | 58% | 1010.4 hPa | 0 mm | - | 647 W/m² | - |
| 1777924001 | 26.67° C | 57% | 1010.6 hPa | 0 mm | - | 506 W/m² | - |
| 1777923697 | 26.67° C | 60% | 1010.6 hPa | 0 mm | - | 853 W/m² | - |
| 1777923393 | 26.67° C | 58% | 1010.5 hPa | 0 mm | - | 740 W/m² | - |
| 1777923091 | 26.67° C | 60% | 1010.3 hPa | 0 mm | - | 939 W/m² | - |
| 1777922789 | 26.67° C | 58% | 1010.6 hPa | 0 mm | - | 767 W/m² | - |
| 1777922487 | 26.67° C | 59% | 1010.8 hPa | 0 mm | - | 920 W/m² | - |
* Rain latest hour (hover to see other rain measurements)
** Current wind speed in m/s (hover to see current wind gust speed)